When you browse on this site, cookies collect data to enhance your experience and personalize the content and advertising you see.
Visit our Privacy Policy to learn more. By continuing to use the site, you agree to this use of cookies and data.
  • en Suisse
  • Liste des pays
  • À 7 jours
  • Température de l'eau
  • Carte météo
  • Widgets météo
  • user-avatar
    Se connecter

    Météo par heure à Wadzhir

    Ce jour, 4 Juin, Jeudi

    Heure Température Précipitation Vent Pression Humidité
    00:00 +28°C° 0 mm 7 m/s 738 mmHg 66%
    01:00 +27°C° 0 mm 7 m/s 737 mmHg 68%
    02:00 +27°C° 0 mm 6 m/s 737 mmHg 71%
    03:00 +26°C° 0 mm 5 m/s 737 mmHg 71%
    04:00 +26°C° 0 mm 5 m/s 737 mmHg 73%
    05:00 +25°C° 0 mm 4 m/s 738 mmHg 74%
    06:00 +25°C° 0 mm 4 m/s 738 mmHg 75%
    07:00 +26°C° 0 mm 5 m/s 738 mmHg 70%
    08:00 +28°C° 0 mm 6 m/s 739 mmHg 64%
    09:00 +29°C° 0 mm 7 m/s 739 mmHg 56%
    10:00 +32°C° 0 mm 7 m/s 739 mmHg 49%
    11:00 +33°C° 0 mm 8 m/s 738 mmHg 42%
    12:00 +35°C° 0 mm 8 m/s 738 mmHg 34%
    13:00 +37°C° 0 mm 8 m/s 737 mmHg 33%
    14:00 +37°C° 0 mm 8 m/s 736 mmHg 32%
    15:00 +39°C° 0 mm 6 m/s 735 mmHg 28%
    16:00 +38°C° 0 mm 6 m/s 735 mmHg 31%
    17:00 +36°C° 0 mm 6 m/s 735 mmHg 33%
    18:00 +36°C° 0 mm 6 m/s 735 mmHg 36%
    19:00 +34°C° 0 mm 7 m/s 736 mmHg 40%
    20:00 +33°C° 0 mm 7 m/s 737 mmHg 45%
    21:00 +32°C° 0 mm 7 m/s 737 mmHg 50%
    22:00 +30°C° 0 mm 7 m/s 738 mmHg 52%
    23:00 +30°C° 0 mm 7 m/s 738 mmHg 55%

    Demain, 5 Juin, Vendredi

    Heure Température Précipitation Vent Pression Humidité
    00:00 +29°C° 0 mm 7 m/s 738 mmHg 57%
    01:00 +28°C° 0 mm 7 m/s 738 mmHg 61%
    02:00 +28°C° 0 mm 7 m/s 738 mmHg 65%
    03:00 +27°C° 0 mm 6 m/s 737 mmHg 69%
    04:00 +27°C° 0 mm 6 m/s 738 mmHg 70%
    05:00 +27°C° 0 mm 5 m/s 738 mmHg 72%
    06:00 +26°C° 0 mm 4 m/s 738 mmHg 73%
    07:00 +27°C° 0 mm 5 m/s 739 mmHg 68%
    08:00 +28°C° 0 mm 6 m/s 739 mmHg 62%
    09:00 +29°C° 0 mm 7 m/s 740 mmHg 56%
    10:00 +32°C° 0 mm 7 m/s 739 mmHg 51%
    11:00 +33°C° 0 mm 8 m/s 739 mmHg 45%
    12:00 +35°C° 0 mm 8 m/s 738 mmHg 40%
    13:00 +37°C° 0 mm 8 m/s 737 mmHg 37%
    14:00 +37°C° 0 mm 8 m/s 736 mmHg 35%
    15:00 +38°C° 0 mm 8 m/s 736 mmHg 32%
    16:00 +38°C° 0 mm 7 m/s 735 mmHg 34%
    17:00 +36°C° 0 mm 7 m/s 735 mmHg 37%
    18:00 +36°C° 0 mm 7 m/s 735 mmHg 39%
    19:00 +35°C° 0 mm 7 m/s 736 mmHg 43%
    20:00 +34°C° 0 mm 7 m/s 737 mmHg 48%
    21:00 +33°C° 0 mm 7 m/s 737 mmHg 52%
    22:00 +32°C° 0 mm 7 m/s 737 mmHg 56%
    23:00 +30°C° 0 mm 7 m/s 737 mmHg 59%

    Après-demain, 6 Juin, Samedi

    Heure Température Précipitation Vent Pression Humidité
    00:00 +29°C° 0 mm 7 m/s 737 mmHg 63%
    01:00 +28°C° 0 mm 6 m/s 737 mmHg 65%
    02:00 +28°C° 0 mm 6 m/s 737 mmHg 66%
    03:00 +27°C° 0 mm 5 m/s 737 mmHg 68%
    04:00 +27°C° 0 mm 5 m/s 737 mmHg 70%
    05:00 +27°C° 0 mm 4 m/s 737 mmHg 73%
    06:00 +26°C° 0 mm 3 m/s 738 mmHg 76%
    07:00 +27°C° 0 mm 5 m/s 738 mmHg 70%
    08:00 +29°C° 0 mm 6 m/s 739 mmHg 65%
    09:00 +30°C° 0 mm 7 m/s 739 mmHg 60%
    10:00 +32°C° 0 mm 7 m/s 739 mmHg 54%
    11:00 +34°C° 0 mm 7 m/s 738 mmHg 47%
    12:00 +37°C° 0 mm 8 m/s 738 mmHg 40%
    13:00 +38°C° 0 mm 7 m/s 737 mmHg 37%
    14:00 +38°C° 0 mm 7 m/s 736 mmHg 35%
    15:00 +39°C° 0 mm 7 m/s 735 mmHg 32%
    16:00 +38°C° 0 mm 7 m/s 735 mmHg 34%
    17:00 +38°C° 0 mm 7 m/s 735 mmHg 36%
    18:00 +36°C° 0 mm 7 m/s 734 mmHg 38%
    19:00 +35°C° 0 mm 7 m/s 735 mmHg 42%
    20:00 +34°C° 0 mm 7 m/s 736 mmHg 45%
    21:00 +33°C° 0 mm 6 m/s 736 mmHg 49%
    22:00 +32°C° 0 mm 7 m/s 736 mmHg 51%
    23:00 +31°C° 0 mm 8 m/s 736 mmHg 54%

    7 Juin, Dimanche

    Heure Température Précipitation Vent Pression Humidité
    00:00 +29°C° 0 mm 8 m/s 736 mmHg 57%
    01:00 +29°C° 0 mm 8 m/s 736 mmHg 59%
    02:00 +28°C° 0 mm 7 m/s 736 mmHg 61%
    03:00 +28°C° 0 mm 7 m/s 736 mmHg 63%
    04:00 +27°C° 0 mm 7 m/s 736 mmHg 67%
    05:00 +27°C° 0 mm 6 m/s 736 mmHg 70%
    06:00 +27°C° 0 mm 6 m/s 737 mmHg 74%
    07:00 +28°C° 0 mm 7 m/s 737 mmHg 70%
    08:00 +29°C° 0 mm 8 m/s 738 mmHg 66%
    09:00 +29°C° 0 mm 8 m/s 738 mmHg 62%
    10:00 +32°C° 0 mm 8 m/s 738 mmHg 56%
    11:00 +34°C° 0 mm 8 m/s 737 mmHg 49%
    12:00 +37°C° 0 mm 9 m/s 737 mmHg 43%
    13:00 +37°C° 0 mm 9 m/s 736 mmHg 41%
    14:00 +38°C° 0 mm 9 m/s 735 mmHg 40%
    15:00 +38°C° 0 mm 8 m/s 734 mmHg 39%
    16:00 +37°C° 0 mm 8 m/s 734 mmHg 41%
    17:00 +37°C° 0 mm 8 m/s 734 mmHg 44%
    18:00 +35°C° 0 mm 8 m/s 734 mmHg 46%
    19:00 +34°C° 0 mm 8 m/s 735 mmHg 48%
    20:00 +33°C° 0 mm 8 m/s 736 mmHg 50%
    21:00 +33°C° 0 mm 8 m/s 736 mmHg 52%
    22:00 +32°C° 0 mm 8 m/s 737 mmHg 56%
    23:00 +29°C° 0 mm 8 m/s 737 mmHg 60%

    8 Juin, Lundi

    Heure Température Précipitation Vent Pression Humidité
    00:00 +28°C° 0 mm 8 m/s 737 mmHg 64%
    01:00 +28°C° 0 mm 7 m/s 737 mmHg 66%
    02:00 +28°C° 0 mm 7 m/s 736 mmHg 68%
    03:00 +27°C° 0 mm 7 m/s 736 mmHg 70%
    04:00 +27°C° 0 mm 7 m/s 736 mmHg 71%
    05:00 +27°C° 0 mm 7 m/s 737 mmHg 73%
    06:00 +27°C° 0 mm 7 m/s 737 mmHg 74%
    07:00 +27°C° 0 mm 7 m/s 737 mmHg 71%
    08:00 +28°C° 0 mm 8 m/s 738 mmHg 67%
    09:00 +29°C° 0 mm 8 m/s 738 mmHg 64%
    10:00 +31°C° 0 mm 8 m/s 738 mmHg 60%
    11:00 +32°C° 0 mm 8 m/s 737 mmHg 56%
    12:00 +32°C° 0 mm 8 m/s 737 mmHg 53%
    13:00 +33°C° 0 mm 7 m/s 736 mmHg 51%
    14:00 +33°C° 0 mm 7 m/s 735 mmHg 49%
    15:00 +34°C° 0 mm 7 m/s 734 mmHg 47%
    16:00 +34°C° 0 mm 7 m/s 735 mmHg 48%
    17:00 +33°C° 0 mm 6 m/s 735 mmHg 49%
    18:00 +33°C° 0 mm 6 m/s 735 mmHg 49%
    19:00 +32°C° 0.3 mm 6 m/s 735 mmHg 52%
    20:00 +32°C° 0.3 mm 7 m/s 736 mmHg 55%
    21:00 +30°C° 0.3 mm 7 m/s 737 mmHg 58%
    22:00 +29°C° 0.2 mm 7 m/s 737 mmHg 61%
    23:00 +28°C° 0.2 mm 7 m/s 737 mmHg 65%

    9 Juin, Mardi

    Heure Température Précipitation Vent Pression Humidité
    00:00 +28°C° 0.2 mm 8 m/s 737 mmHg 68%
    01:00 +27°C° 0 mm 7 m/s 736 mmHg 71%
    02:00 +26°C° 0 mm 6 m/s 736 mmHg 73%
    03:00 +26°C° 0 mm 6 m/s 736 mmHg 76%
    04:00 +26°C° 0 mm 6 m/s 736 mmHg 77%
    05:00 +26°C° 0 mm 5 m/s 737 mmHg 78%
    06:00 +25°C° 0 mm 5 m/s 737 mmHg 80%
    07:00 +26°C° 0 mm 5 m/s 738 mmHg 76%
    08:00 +27°C° 0 mm 5 m/s 738 mmHg 73%
    09:00 +27°C° 0 mm 6 m/s 738 mmHg 69%
    10:00 +29°C° 0 mm 6 m/s 738 mmHg 61%
    11:00 +30°C° 0 mm 6 m/s 738 mmHg 53%
    12:00 +33°C° 0 mm 6 m/s 737 mmHg 45%
    13:00 +34°C° 0 mm 6 m/s 737 mmHg 42%
    14:00 +35°C° 0 mm 6 m/s 736 mmHg 39%
    15:00 +36°C° 0 mm 7 m/s 735 mmHg 36%
    16:00 +35°C° 0 mm 7 m/s 735 mmHg 36%
    17:00 +35°C° 0 mm 7 m/s 735 mmHg 37%
    18:00 +35°C° 0 mm 7 m/s 735 mmHg 38%
    19:00 +34°C° 0 mm 7 m/s 735 mmHg 41%
    20:00 +33°C° 0 mm 7 m/s 736 mmHg 44%
    21:00 +32°C° 0 mm 7 m/s 736 mmHg 46%
    22:00 +30°C° 0 mm 7 m/s 737 mmHg 52%
    23:00 +29°C° 0 mm 8 m/s 737 mmHg 57%
    Voir plus